Terminal Aerodrome Forecast
Issued by NWS Pittsburgh, PA

Current Version | Previous Version | Text Only | Print | Product List | Glossary Off
Versions: 1 2 3 4 5 6 7 8 9 10 11 12 13 14 15 16 17 18 19 20 21 22 23 24 25 26 27 28 29 30

000
FTUS41 KPBZ 281500 AAA
TAFPIT
TAF AMD
KPIT 281501Z 2815/2918 22012G24KT P6SM SCT040
     FM281800 23012G24KT P6SM VCSH BKN040
     FM282200 24013G26KT 4SM -SHRA BKN025
     FM290200 26010G20KT P6SM BKN035
     FM290600 27005KT P6SM SCT080=

USA.gov is the U.S. government's official web portal to all federal, state and local government web resources and services.